Regional Weather Roundup
Issued by NWS Northern Indiana

Home | Current Version | Previous Version | Text Only | Print | Product List | Glossary Off
Versions: 1 2 3 4 5 6 7 8 9 10 11 12 13 14 15 16 17 18 19 20 21 22 23 24 25 26 27 28 29 30 31 32 33 34 35 36 37 38 39 40 41 42 43 44 45 46 47 48 49 50

254
ASUS43 KIWX 220000
RWRIWX

KIWX WEATHER ROUNDUP
NATIONAL WEATHER SERVICE NORTHERN INDIANA
800 PM EDT SAT OCT 21 2017

NOTE: "FAIR" INDICATES FEW OR NO CLOUDS BELOW 12,000 FEET WITH NO
SIGNIFICANT WEATHER AND/OR OBSTRUCTIONS TO VISIBILITY.

* THESE STATIONS ARE NOT UNDER NWS QUALITY CONTROL. THEY ALSO MAY NOT
  REPORT WEATHER SUCH AS PRECIPITATION OR FOG.

INZ001>027-220100-
NORTHERN INDIANA

CITY           SKY/WX    TMP DP  RH WIND       PRES   REMARKS
GARY*          PTCLDY    73  55  53 SE12      30.04R
MICHIGAN CITY* CLOUDY    70  54  56 S7        30.07R
LAPORTE*       CLOUDY    68  55  63 S8        30.08S
6HR MIN TEMP:  68; 6HR MAX TEMP:  76;

KNOX*          CLOUDY    68  54  60 S9        30.08S
SOUTH BEND     PTCLDY    68  54  60 S9        30.10R
6HR MIN TEMP:  68; 6HR MAX TEMP:  75; 6HR PCP: TRACE;

GOSHEN         CLOUDY    66  52  60 SE7       30.12R
6HR MIN TEMP:  66; 6HR MAX TEMP:  75;

MONTICELLO*    PTCLDY    69  53  55 S7        30.09R
6HR MIN TEMP:  69; 6HR MAX TEMP:  76;

WARSAW*        CLOUDY    68  54  60 SE3       30.12S
AUBURN*        PTCLDY    63  43  48 CALM      30.15S
FORT WAYNE     MOCLDY    63  44  50 S8        30.15R
6HR MIN TEMP:  63; 6HR MAX TEMP:  77;

PERU/GRISSOM   MOCLDY    67  53  61 S9        30.13R
6HR MIN TEMP:  67; 6HR MAX TEMP:  75; 6HR PCP: TRACE;


$$
INZ028>050-220100-
CENTRAL INDIANA

CITY           SKY/WX    TMP DP  RH WIND       PRES   REMARKS
LAFAYETTE      CLEAR     69  56  62 S9        30.09R
6HR MIN TEMP:  69; 6HR MAX TEMP:  76;

KOKOMO*        MOCLDY    68  53  58 S12       30.15R
6HR MIN TEMP:  68; 6HR MAX TEMP:  75;

MUNCIE*        PTCLDY    69  48  47 S7        30.17R
6HR MIN TEMP:  69; 6HR MAX TEMP:  77;

INDIANAPOLIS   MOCLDY    67  50  54 SE12      30.15R
6HR MIN TEMP:  67; 6HR MAX TEMP:  76;


$$
MIZ043>046-050>051-056>058-064>065-071>073-077>080-220100-
SOUTHWEST LOWER MICHIGAN

CITY           SKY/WX    TMP DP  RH WIND       PRES   REMARKS
BATTLE CREEK   MOCLDY    67  42  40 S7        30.13R
6HR MIN TEMP:  67; 6HR MAX TEMP:  75;

BENTON HARBOR  CLOUDY    70  53  54 SE10      30.06R
6HR MIN TEMP:  70; 6HR MAX TEMP:  75;

COLDWATER*     CLOUDY    66  41  39 SE6       30.13S
6HR MIN TEMP:  66; 6HR MAX TEMP:  75;

HILLSDALE*     CLOUDY    64  45  48 SE5       30.15S
HOLLAND        PTCLDY    68  52  56 SE10      30.07R
6HR MIN TEMP:  68; 6HR MAX TEMP:  75; 6HR PCP: TRACE;

GRAND RAPIDS   CLOUDY    66  47  50 SE10      30.08R
6HR MIN TEMP:  63; 6HR MAX TEMP:  76;

KALAMAZOO      CLOUDY    69  48  47 S6        30.11R
6HR MIN TEMP:  68; 6HR MAX TEMP:  75;

STURGIS*       CLOUDY    66  48  51 S7        30.12S
6HR MIN TEMP:  66; 6HR MAX TEMP:  75;

THREE RIVERS*  FAIR      69  51  53 S8        30.12S
6HR MIN TEMP:  69; 6HR MAX TEMP:  76;


$$
OHZ001>008-015>018-024>025-220100-
NORTHWEST OHIO

CITY           SKY/WX    TMP DP  RH WIND       PRES   REMARKS
DEFIANCE       PTCLDY    67  43  41 S6        30.16R
6HR MIN TEMP:  65; 6HR MAX TEMP:  75;

FINDLAY        PTCLDY    60  40  47 S9        30.18R
6HR MIN TEMP:  60; 6HR MAX TEMP:  79;

TOLEDO EXPRESS PTCLDY    61  55  81 S5        30.16R
6HR MIN TEMP:  61; 6HR MAX TEMP:  76;

TOLEDO METCALF PTCLDY    64  51  62 S6        30.18R
6HR MIN TEMP:  63; 6HR MAX TEMP:  75;

LIMA           PTCLDY    63  43  48 S8        30.20R
6HR MIN TEMP:  61; 6HR MAX TEMP:  77;


$$
AND FOR LAKE MICHIGAN COASTAL AND OPEN LAKE BUOY OBSERVATIONS

STATION/POSITION TEMP    WIND        PRES    VSBY  WAVE
                 AIR SEA DIR/SP/G                  HT/PER
                 (F)     (DEG/KT/KT) (MB)    (MI)  (FT/S)
CALUMET HARBOR    73     160/ 11/ 14 1015.9
MICHIGAN CITY     72     160/  9/ 11   N/A
BURNS HARBOR      72     170/ 11/ 19 1017.6R
SAINT JOSEPH      72     190/  3/  8 1017.9
SOUTH LAKE BUOY   65 61  150/ 16/ 17 1015.8          3/ 4
4 MI NW BRIDGMAN  67 59  180/ 12/ 16 1017.7R         2/ 3
MICHIGAN CITY     67 58  170/ 12/ 14   N/A           1

$$
&&




USA.gov is the U.S. government's official web portal to all federal, state and local government web resources and services.